Weather History for KFYJ - May, 2013

Change the Weather History Date:

Wednesday, May 1, 2013

  Actual Average (KRIC) Record (KRIC)
Temperature  
Mean Temperature 58 °F 62 °F  
Max Temperature 66 °F 75 °F 94 °F (1942)
Min Temperature 50 °F 51 °F 36 °F (1996)
Degree Days  
Heating Degree Days 7 4  
Month to date heating degree days 4  
Since 1 July heating degree days 3696  
Cooling Degree Days 0 2  
Month to date cooling degree days 2  
Year to date cooling degree days 44  
Growing Degree Days 8 (Base 50)    
Moisture  
Dew Point 51 °F    
Average Humidity 77    
Maximum Humidity 100    
Minimum Humidity 44    
Precipitation  
Precipitation 0.00 in 0.11 in 1.10 in (1961)
Month to date precipitation 0.11  
Year to date precipitation 13.22  
Snow  
Snow 0.00 in 0.00 in 0.00 in (2002)
Month to date snowfall 0.0  
Since 1 July snowfall 10.3  
Snow Depth -    
Sea Level Pressure  
Sea Level Pressure 30.33 in    
Wind  
Wind Speed 8 mph (NE)    
Max Wind Speed 16 mph    
Max Gust Speed 22 mph    
Visibility 10 miles    
Events      
T = Trace of Precipitation, MM = Missing Value Source: NWS Daily Summary

Daily Weather History Graph

Daily Weather History Graph

Search for Another Location

Airport or City:

Trip Planner

Search our weather history database for the weather conditions in past years. The results will help you decide how hot, cold, wet, or windy it might be!

Date:

Astronomy

May. 01, 2013 Rise Set
Actual Time 6:11 AM EDT 7:57 PM EDT
Civil Twilight 5:43 AM EDT 8:25 PM EDT
Nautical Twilight 5:09 AM EDT 8:59 PM EDT
Astronomical Twilight 4:33 AM EDT 9:35 PM EDT
Moon 1:04 AM EDT (5/1) 11:47 AM EDT (5/1)
Length of Visible Light 14h 42m
Length of Day
13h 45m
Waning Gibbous, 59% of the Moon is Illuminated
May 1
Waning Gibbous
May 2
Last Quarter
May 9
New
May 18
First Quarter
May 25
Full

Hourly Weather History & Observations

Time (EDT) Temp. Dew Point Humidity Pressure Visibility Wind Dir Wind Speed Gust Speed Precip Events Conditions
12:15 AM 57.4 °F 57.4 °F 100% 30.24 in 10.0 mi NNE 6.9 mph - N/A   Overcast
12:35 AM 57.2 °F 57.2 °F 100% 30.25 in 5.0 mi North 4.6 mph - N/A   Overcast
12:55 AM 56.8 °F 56.8 °F 100% 30.25 in 7.0 mi North 5.8 mph - N/A   Overcast
1:15 AM 56.5 °F 56.5 °F 100% 30.25 in 5.0 mi NNE 4.6 mph - N/A   Overcast
1:35 AM 56.3 °F 56.3 °F 100% 30.25 in 4.0 mi NNE 5.8 mph - N/A   Overcast
2:15 AM 55.8 °F 55.8 °F 100% 30.24 in 7.0 mi NNE 6.9 mph - N/A   Overcast
2:35 AM 55.6 °F 55.6 °F 100% 30.24 in 10.0 mi NNE 6.9 mph - N/A   Overcast
3:15 AM 55.6 °F 55.6 °F 100% 30.24 in 10.0 mi NNE 5.8 mph - N/A   Overcast
3:35 AM 55.6 °F 55.6 °F 100% 30.24 in 10.0 mi NNE 4.6 mph - N/A   Overcast
3:55 AM 55.4 °F 55.4 °F 100% 30.24 in 10.0 mi NNE 5.8 mph - N/A   Overcast
4:15 AM 55.2 °F 55.2 °F 100% 30.24 in 10.0 mi NNE 6.9 mph - N/A   Overcast
4:35 AM 55.0 °F 54.9 °F 99% 30.25 in 10.0 mi North 6.9 mph - N/A   Overcast
5:15 AM 54.9 °F 54.3 °F 98% 30.25 in 10.0 mi NNE 8.1 mph - N/A   Overcast
5:35 AM 54.5 °F 54.1 °F 99% 30.26 in 10.0 mi North 6.9 mph - N/A   Overcast
5:55 AM 54.5 °F 54.0 °F 98% 30.26 in 10.0 mi NNE 6.9 mph - N/A   Overcast
6:15 AM 54.0 °F 53.8 °F 99% 30.27 in 10.0 mi NNE 6.9 mph - N/A   Mostly Cloudy
6:35 AM 54.1 °F 54.0 °F 99% 30.28 in 10.0 mi NNE 5.8 mph - N/A   Mostly Cloudy
6:55 AM 54.5 °F 54.0 °F 98% 30.29 in 10.0 mi NNE 6.9 mph - N/A   Overcast
7:15 AM 54.5 °F 54.0 °F 98% 30.29 in 10.0 mi NNE 6.9 mph - N/A   Overcast
7:35 AM 55.4 °F 53.8 °F 94% 30.29 in 10.0 mi NNE 6.9 mph - N/A   Overcast
8:15 AM 56.5 °F 54.1 °F 92% 30.31 in 10.0 mi NNE 8.1 mph - N/A   Mostly Cloudy
8:35 AM 57.2 °F 53.6 °F 88% 30.32 in 10.0 mi NNE 8.1 mph - N/A   Scattered Clouds
8:55 AM 58.1 °F 53.6 °F 85% 30.32 in 10.0 mi NNE 11.5 mph 16.1 mph N/A   Clear
9:15 AM 59.7 °F 54.3 °F 82% 30.33 in 10.0 mi NE 8.1 mph 16.1 mph N/A   Clear
9:35 AM 60.6 °F 54.3 °F 80% 30.33 in 10.0 mi NNE 9.2 mph 17.3 mph N/A   Scattered Clouds
9:55 AM 62.4 °F 55.2 °F 77% 30.33 in 10.0 mi NE 10.4 mph 16.1 mph N/A   Scattered Clouds
10:15 AM 62.6 °F 55.2 °F 77% 30.33 in 10.0 mi NNE 11.5 mph 20.7 mph N/A   Scattered Clouds
10:35 AM 64.0 °F 56.3 °F 76% 30.34 in 10.0 mi NNE 10.4 mph - N/A   Mostly Cloudy
10:55 AM 64.4 °F 55.4 °F 73% 30.34 in 10.0 mi NE 10.4 mph 19.6 mph N/A   Overcast
11:15 AM 64.8 °F 55.4 °F 72% 30.35 in 10.0 mi ENE 15.0 mph 21.9 mph N/A   Overcast
11:35 AM 64.8 °F 54.9 °F 70% 30.35 in 10.0 mi NE 16.1 mph 21.9 mph N/A   Overcast
11:55 AM 65.1 °F 54.5 °F 68% 30.35 in 10.0 mi NE 12.7 mph 21.9 mph N/A   Overcast
12:15 PM 64.6 °F 54.3 °F 69% 30.35 in 10.0 mi ENE 16.1 mph 21.9 mph N/A   Overcast
12:35 PM 64.4 °F 54.1 °F 69% 30.35 in 10.0 mi ENE 13.8 mph 17.3 mph N/A   Overcast
12:55 PM 64.9 °F 53.2 °F 66% 30.34 in 10.0 mi ENE 9.2 mph - N/A   Overcast
1:15 PM 65.3 °F 51.4 °F 61% 30.35 in 10.0 mi NE 12.7 mph 18.4 mph N/A   Overcast
1:35 PM 64.8 °F 49.5 °F 58% 30.35 in 10.0 mi ENE 16.1 mph 21.9 mph N/A   Overcast
1:55 PM 66.0 °F 46.4 °F 49% 30.35 in 10.0 mi ENE 13.8 mph 20.7 mph N/A   Overcast
2:15 PM 64.8 °F 46.6 °F 52% 30.35 in 10.0 mi ENE 13.8 mph 19.6 mph N/A   Overcast
2:35 PM 66.0 °F 47.7 °F 52% 30.36 in 10.0 mi ENE 11.5 mph 19.6 mph N/A   Overcast
2:55 PM 64.4 °F 45.1 °F 50% 30.36 in 5.0 mi NE 12.7 mph 19.6 mph N/A   Overcast
3:15 PM 63.9 °F 46.4 °F 53% 30.36 in 10.0 mi ENE 15.0 mph 19.6 mph N/A   Overcast
3:35 PM 63.9 °F 46.9 °F 54% 30.36 in 10.0 mi ENE 10.4 mph - N/A   Overcast
3:55 PM 63.9 °F 45.3 °F 51% 30.37 in 10.0 mi ENE 9.2 mph 19.6 mph N/A   Overcast
4:15 PM 63.9 °F 44.8 °F 50% 30.37 in 10.0 mi ENE 11.5 mph - N/A   Overcast
4:35 PM 63.1 °F 43.0 °F 48% 30.38 in 10.0 mi NE 9.2 mph 16.1 mph N/A   Overcast
4:55 PM 62.8 °F 42.4 °F 47% 30.38 in 10.0 mi NE 8.1 mph - N/A   Overcast
5:15 PM 63.0 °F 41.9 °F 46% 30.38 in 10.0 mi NE 8.1 mph - N/A   Overcast
5:35 PM 63.7 °F 42.1 °F 45% 30.38 in 10.0 mi NE 9.2 mph 16.1 mph N/A   Overcast
5:55 PM 63.7 °F 41.4 °F 44% 30.38 in 10.0 mi ENE 15.0 mph 19.6 mph N/A   Overcast
6:15 PM 62.8 °F 42.4 °F 47% 30.37 in 10.0 mi ENE 6.9 mph 16.1 mph N/A   Overcast
6:35 PM 62.2 °F 42.8 °F 49% 30.37 in 10.0 mi NE 8.1 mph - N/A   Scattered Clouds
6:55 PM 62.8 °F 42.1 °F 47% 30.36 in 10.0 mi ENE 9.2 mph 17.3 mph N/A   Clear
7:15 PM 61.9 °F 43.2 °F 50% 30.36 in 10.0 mi NE 5.8 mph - N/A   Clear
7:35 PM 60.8 °F 43.0 °F 52% 30.36 in 10.0 mi NE 5.8 mph - N/A   Clear
7:55 PM 59.2 °F 43.5 °F 56% 30.36 in 10.0 mi NE 4.6 mph - N/A   Clear
8:15 PM 57.2 °F 46.0 °F 66% 30.37 in 10.0 mi Calm Calm - N/A   Clear
8:35 PM 52.9 °F 46.6 °F 79% 30.38 in 10.0 mi Calm Calm - N/A   Clear
8:55 PM 50.9 °F 46.8 °F 86% 30.39 in 10.0 mi Calm Calm - N/A   Clear
9:35 PM 51.1 °F 48.2 °F 90% 30.40 in 10.0 mi Calm Calm - N/A   Clear
9:55 PM 51.8 °F 49.3 °F 91% 30.40 in 10.0 mi Calm Calm - N/A   Mostly Cloudy
10:15 PM 52.7 °F 50.5 °F 92% 30.40 in 10.0 mi Calm Calm - N/A   Overcast
10:35 PM 54.1 °F 52.2 °F 93% 30.40 in 10.0 mi ENE 3.5 mph - N/A   Overcast
10:55 PM 56.3 °F 55.0 °F 96% 30.41 in 10.0 mi ENE 6.9 mph - N/A   Overcast
11:35 PM 55.8 °F 55.4 °F 99% 30.40 in 10.0 mi ENE 6.9 mph - N/A   Overcast
11:55 PM 55.8 °F 55.4 °F 99% 30.41 in 10.0 mi ENE 5.8 mph - N/A   Overcast